Location: Unspecified
(43.4680°N, 87.1740°E)
Time: 21:43:41
(UTC+00:00)

SL-16 R/B - Pass Details

Date: 17 April 2021
Orbit: 840 x 849 km, 71.0° (Epoch: 11 May)

Event Time Altitude Azimuth Distance (km) Brightness Sun altitude
Rises 15:37:47 0° 340° (NNW) 3,422 6.4 -25.6°
Reaches altitude 10° 15:40:26 10° 349° (NNW) 2,482 5.4 -25.9°
Maximum altitude 15:45:44 38° 57° (ENE) 1,270 3.0 -26.6°
Enters shadow 15:45:53 38° 61° (ENE) 1,272 3.0 -26.6°
